CAPE
1544 1629 1639 1645 1375 1336 1886 2231 1606 1288 1277 924 785 552 567 572 423 264 188 177 32 10 34 14 1 0 8 7 13 9 7 0 0 2 17 6 4 0 0 1 2 0 0
1867 1890 1796 1814 1801 1557 1404 1900 2329 1551 1290 1358 1132 737 662 643 568 401 267 238 154 48 101 99 7 22 51 31 8 30 17 12 0 0 19 41 30 15 0 0 15 16 0
2006 2016 2215 2227 2215 2076 1754 1639 2050 2447 1615 1497 1533 786 709 698 671 495 266 222 249 74 132 90 72 7 85 61 26 16 38 82 99 65 39 43 55 72 39 25 24 48 4
2319 2123 2124 2335 2601 2512 2229 1875 1801 2055 2199 1490 1476 1420 1272 879 745 616 375 245 276 135 163 188 155 57 30 53 133 151 109 117 84 73 70 46 39 65 37 11 4 0 1
2525 2573 2391 2353 2447 2737 2673 2315 1986 1885 2082 2032 1541 1496 1424 1228 1092 857 573 407 319 286 228 311 317 220 179 185 144 124 110 143 159 106 68 34 53 41 5 0 9 13 0
2583 2716 2741 2735 2617 2622 2844 2826 2438 2281 2013 1988 1793 1702 1593 1467 1364 1112 885 770 666 575 290 223 278 298 346 368 364 223 160 102 89 88 85 65 47 28 10 20 28 17 0
2583 2747 2815 2911 2920 2890 2892 2926 2934 2618 2511 2506 2318 2174 2090 2089 1951 1690 1505 1342 1322 1222 754 352 407 331 495 587 412 529 566 419 307 112 41 32 7 28 15 8 4 0 0
2536 2733 2898 2884 2945 2976 3068 3012 2985 2923 2764 2651 2657 2685 2665 2594 2428 2285 2089 2097 1936 1412 1181 546 406 469 559 541 316 198 322 275 182 193 47 51 89 83 108 96 74 69 39
2454 2535 2790 2860 2821 3067 3075 3053 2970 2993 2975 2960 2926 2784 2800 2803 2831 2618 2428 2222 1716 1436 1081 686 676 734 620 422 144 135 263 212 125 177 312 351 234 137 88 122 207 112 5
1808 2203 2612 2757 2802 2843 3092 3041 3018 3033 3059 3084 3100 3065 3062 3074 3040 2838 2243 1911 1586 1054 503 641 586 527 538 504 219 341 177 51 126 123 147 152 134 108 35 0 0 1 4
1637 1803 1951 2596 2759 2859 3118 3177 3107 3076 3137 3147 3119 3174 3245 3061 2837 2525 1942 1548 1180 722 244 139 335 275 309 372 319 238 135 154 144 81 15 0 0 0 0 0 0 3 4
1284 1501 1890 2332 2714 2932 3260 3304 3240 3142 3263 3253 3039 3345 3121 2472 2152 1826 1371 1024 675 330 257 339 433 276 319 487 510 205 222 119 64 10 0 0 0 0 0 0 0 4 6
1541 1752 2180 2517 2794 3204 3293 3246 3287 3021 2958 2841 2690 3086 2435 1863 1678 1258 1040 590 461 396 537 615 316 318 133 195 186 134 87 64 0 0 0 0 0 0 0 0 0 0 0
2235 3188 3457 3298 3327 3262 3222 3167 3077 2584 2352 2257 2643 2250 1733 1362 1178 902 717 549 485 508 605 532 374 414 81 29 40 26 16 0 0 0 0 0 0 0 0 0 0 0 0
3405 3316 3422 3406 3281 3285 3279 3284 2647 1793 1614 2068 1798 1305 1174 940 835 721 687 693 759 773 727 506 188 130 31 12 0 0 0 0 0 0 0 1 0 0 0 0 0 0 0
3124 3344 3385 3258 3102 2986 3435 2386 1222 1009 567 1006 938 885 771 662 765 852 855 670 582 618 403 427 106 0 0 0 0 0 0 1 0 2 4 5 0 0 1 0 0 0 0
2862 2406 2133 1424 1623 1810 1073 866 381 423 573 702 707 687 772 833 715 385 218 20 4 4 3 0 0 0 0 0 0 0 2 0 11 41 9 0 0 1 0 0 0 0 0
1590 1349 1556 1219 953 484 224 292 501 614 507 726 682 402 590 483 119 13 0 0 0 0 0 0 0 0 0 0 0 0 0 0 0 0 0 2 1 0 0 0 0 0 0
1018 1139 1192 950 808 745 530 433 441 590 580 516 182 17 235 227 11 0 0 0 0 0 0 0 0 0 0 0 0 0 0 0 0 0 0 0 0 0 0 0 0 0 0
855 862 887 829 745 675 574 497 445 320 122 46 0 0 0 0 0 0 0 0 0 0 0 0 0 0 0 0 0 0 0 0 0 0 0 0 0 0 0 0 0 0 0
924 772 707 784 664 484 330 171 67 1 0 0 0 0 0 0 0 0 0 0 0 0 0 0 0 0 0 0 0 0 0 0 0 0 0 0 0 0 0 0 0 0 0
634 1101 982 961 727 493 314 158 40 19 3 7 3 0 0 0 0 0 0 0 0 0 0 0 0 0 0 0 0 0 0 0 0 0 0 0 0 0 0 0 0 0 0
250 289 371 361 234 113 27 57 105 106 69 68 7 0 0 0 0 0 0 0 0 0 0 0 9 2 0 0 0 0 0 0 0 0 0 0 0 0 0 0 0 0 0
1 9 41 63 79 46 39 16 60 73 88 74 49 36 15 6 9 2 0 0 1 5 12 10 9 1 0 0 0 0 0 0 0 0 0 0 0 0 0 0 0 0 0
35 10 21 49 66 37 21 4 26 62 44 66 69 64 50 22 13 9 4 7 5 4 17 14 0 0 0 0 0 0 0 0 0 0 0 0 0 0 0 0 0 0 0
47 60 50 55 52 20 13 39 39 20 46 149 117 85 60 49 43 34 36 44 28 17 18 11 2 0 0 0 0 0 0 0 0 0 0 0 0 0 0 0 0 0 0
CIN
-335 -287 -260 -257 -266 -206 -155 -86 -119 -125 -110 -133 -121 -219 -123 -194 -174 -274 -274 -229 -305 -328 -263 -205 -38 -0 -131 -80 -95 -94 -99 -0 -10 -21 -41 -30 -21 -0 -0 -11 -15 -0 -0
-347 -295 -288 -260 -256 -256 -257 -184 -91 -136 -146 -124 -117 -191 -178 -148 -138 -145 -282 -264 -270 -293 -199 -184 -94 -172 -139 -75 -66 -74 -65 -100 -0 -0 -65 -55 -52 -44 -0 -0 -29 -41 -0
-358 -322 -267 -234 -233 -261 -283 -263 -190 -93 -146 -134 -119 -229 -252 -186 -150 -157 -129 -282 -226 -319 -215 -174 -143 -65 -148 -138 -97 -83 -104 -179 -182 -95 -59 -72 -66 -57 -57 -80 -73 -39 -10
-367 -360 -330 -275 -245 -268 -290 -301 -294 -211 -133 -187 -164 -145 -144 -165 -175 -181 -172 -266 -222 -294 -217 -132 -101 -111 -231 -188 -124 -107 -165 -126 -31 -74 -67 -78 -71 -49 -40 -36 -16 -0 -33
-384 -352 -366 -338 -311 -259 -246 -285 -297 -278 -213 -165 -185 -185 -153 -131 -128 -129 -118 -148 -227 -199 -220 -109 -72 -76 -111 -61 -53 -81 -117 -92 -83 -130 -40 -57 -59 -49 -35 -0 -9 -15 -0
-374 -391 -361 -317 -305 -295 -252 -242 -254 -263 -255 -227 -221 -170 -142 -127 -110 -108 -97 -90 -84 -74 -73 -164 -92 -147 -91 -51 -18 -18 -9 -28 -28 -30 -25 -66 -43 -41 -36 -35 -34 -29 -0
-435 -397 -352 -335 -300 -279 -263 -228 -220 -228 -211 -171 -148 -118 -104 -79 -69 -75 -58 -52 -39 -37 -35 -74 -65 -72 -47 -22 -30 -18 -17 -18 -19 -39 -37 -50 -65 -63 -36 -9 -7 -0 -0
-460 -399 -365 -344 -337 -274 -237 -242 -219 -195 -189 -161 -125 -93 -74 -59 -41 -22 -23 -11 -8 -14 -15 -49 -59 -47 -37 -18 -21 -24 -13 -20 -22 -26 -34 -60 -55 -39 -30 -15 -12 -18 -20
-447 -433 -394 -370 -361 -290 -259 -246 -228 -185 -155 -129 -114 -104 -73 -31 -9 -23 -14 -14 -13 -18 -21 -32 -36 -31 -27 -28 -8 -27 -19 -27 -67 -82 -47 -32 -33 -65 -62 -27 -14 -16 -5
-394 -426 -447 -393 -359 -350 -280 -228 -217 -185 -164 -121 -90 -71 -30 -28 -18 -20 -27 -42 -28 -39 -109 -65 -46 -26 -36 -18 -12 -16 -21 -87 -43 -49 -38 -29 -22 -18 -21 -0 -0 -162 -134
-420 -423 -466 -435 -398 -353 -262 -185 -160 -145 -115 -89 -65 -21 -10 -10 -11 -28 -41 -70 -67 -90 -176 -135 -30 -8 -0 -22 -15 -22 -23 -38 -21 -32 -27 -30 -0 -0 -0 -0 -0 -68 -83
-366 -384 -445 -474 -405 -307 -214 -149 -101 -77 -65 -33 -28 -0 -1 -12 -30 -48 -52 -58 -93 -127 -76 -36 -2 -8 -15 -13 -14 -25 -23 -28 -20 -14 -0 -0 -0 -0 -0 -0 -0 -1 -59
-399 -509 -489 -407 -368 -276 -170 -122 -61 -69 -37 -34 -52 -18 -5 -47 -72 -90 -78 -106 -108 -74 -11 -0 -24 -8 -9 -33 -33 -24 -25 -20 -1 -0 -0 -0 -0 -0 -0 -0 -0 -0 -0
-401 -376 -285 -249 -225 -188 -136 -88 -71 -42 -53 -72 -8 -53 -63 -98 -106 -112 -91 -101 -59 -29 -0 -4 -12 -0 -8 -22 -4 -43 -23 -0 -0 -0 -0 -0 -0 -0 -0 -0 -0 -0 -0
-261 -274 -220 -141 -108 -88 -49 -19 -27 -56 -42 -69 -144 -169 -143 -158 -148 -90 -112 -53 -7 -3 -0 -3 -5 -6 -9 -3 -0 -0 -0 -0 -0 -0 -0 -40 -0 -0 -0 -0 -0 -0 -0
-193 -112 -106 -88 -67 -28 -0 -11 -36 -44 -5 -98 -168 -146 -229 -205 -149 -40 -57 -35 -32 -4 -4 -0 -9 -0 -0 -0 -0 -0 -0 -4 -0 -11 -19 -12 -4 -0 -0 -0 -0 -0 -0
-115 -47 -54 -46 -32 -10 -35 -39 -20 -6 -16 -94 -136 -113 -95 -129 -72 -116 -160 -168 -146 -1 -1 -0 -0 -0 -0 -0 -0 -0 -14 -0 -18 -50 -24 -0 -0 -1 -0 -0 -0 -0 -0
-63 -29 -59 -72 -60 -112 -268 -354 -18 -56 -82 -98 -107 -142 -94 -121 -192 -211 -0 -0 -0 -0 -0 -0 -0 -0 -0 -0 -0 -0 -0 -0 -0 -0 -0 -0 -1 -0 -0 -0 -0 -0 -0
-137 -12 -46 -61 -54 -76 -96 -128 -119 -114 -118 -166 -166 -111 -119 -120 -207 -0 -0 -0 -0 -0 -0 -0 -0 -0 -0 -0 -0 -0 -0 -0 -0 -0 -0 -0 -0 -0 -0 -0 -0 -0 -0
-60 -74 -71 -78 -97 -88 -59 -87 -128 -101 -139 -141 -0 -0 -0 -0 -0 -0 -0 -0 -0 -0 -0 -0 -0 -0 -0 -0 -0 -0 -0 -0 -0 -0 -0 -0 -0 -0 -0 -0 -0 -0 -0
-50 -80 -113 -112 -115 -117 -124 -158 -161 -88 -0 -0 -0 -0 -0 -0 -0 -0 -0 -0 -0 -0 -0 -0 -0 -0 -0 -0 -0 -0 -0 -0 -0 -0 -0 -0 -0 -0 -0 -0 -0 -0 -0
-4 -11 -21 -13 -13 -31 -46 -43 -107 -34 -9 -63 -24 -21 -0 -0 -0 -0 -0 -0 -0 -0 -0 -0 -0 -0 -0 -0 -0 -0 -0 -0 -0 -0 -0 -0 -0 -0 -0 -0 -0 -0 -0
-8 -9 -1 -2 -18 -24 -71 -80 -45 -32 -11 -6 -15 -0 -0 -0 -0 -0 -0 -0 -0 -0 -0 -0 -5 -1 -0 -0 -0 -0 -0 -0 -0 -0 -0 -0 -0 -0 -0 -0 -0 -0 -0
-3 -16 -42 -28 -15 -17 -12 -19 -49 -37 -19 -17 -11 -12 -11 -7 -1 -0 -0 -0 -3 -5 -4 -3 -0 -2 -0 -0 -0 -0 -0 -0 -0 -0 -0 -0 -0 -0 -0 -0 -0 -0 -0
-68 -36 -49 -37 -36 -32 -41 -10 -16 -51 -28 -26 -25 -19 -11 -7 -13 -17 -17 -21 -10 -5 -9 -6 -0 -0 -0 -0 -0 -0 -0 -0 -0 -0 -0 -0 -0 -0 -0 -0 -0 -0 -0
-49 -26 -32 -18 -22 -24 -12 -12 -40 -50 -49 -24 -22 -22 -21 -14 -9 -6 -9 -9 -8 -10 -3 -9 -9 -0 -0 -0 -0 -0 -0 -0 -0 -0 -0 -0 -0 -0 -0 -0 -0 -0 -0
Wind_Speed
20 16 16 15 14 6 7 6 4 2 8 9 13 14 15 14 16 18 21 25 nan nan nan nan nan nan nan nan nan nan nan nan nan nan nan nan nan nan nan nan nan nan nan
21 19 18 16 12 3 6 4 3 8 11 11 13 14 12 16 22 23 28 32 35 nan 34 nan nan nan nan nan nan nan nan nan nan nan nan nan nan nan nan nan nan nan nan
21 19 17 14 9 2 5 2 3 2 6 9 11 15 16 20 24 28 31 34 38 nan 40 nan nan nan nan nan nan nan nan nan nan nan nan nan nan nan nan nan nan nan nan
21 21 19 12 9 5 2 3 5 6 6 7 10 13 16 19 24 29 30 31 34 36 38 38 36 nan nan nan 29 27 30 32 nan nan nan nan nan nan nan nan nan nan nan
23 27 20 14 8 6 6 9 10 8 7 9 13 11 14 19 23 30 32 35 37 39 40 40 38 39 41 37 30 29 31 31 32 32 nan nan nan nan nan nan nan nan nan
22 25 26 20 16 10 11 13 14 13 13 17 16 17 18 19 26 34 35 35 38 40 42 42 42 42 38 38 32 35 35 33 nan nan nan nan nan nan nan nan nan nan nan
31 31 29 24 20 17 16 18 19 16 21 19 19 21 21 24 32 37 39 38 40 40 44 45 41 36 37 34 33 35 33 30 31 37 nan nan nan nan nan nan nan nan nan
27 30 30 24 23 22 20 18 20 23 23 19 20 23 26 28 38 43 41 41 42 41 46 47 44 40 40 38 36 37 35 35 39 42 nan nan nan nan 55 nan nan nan nan
31 27 31 24 26 27 24 21 23 27 28 26 25 27 28 33 42 37 42 40 41 42 44 46 43 38 40 43 42 39 36 38 42 41 43 43 47 49 nan 60 55 57 nan
34 30 31 26 27 28 28 25 26 30 31 30 28 29 33 38 42 42 40 39 40 43 49 46 45 40 41 39 42 42 38 nan 44 49 50 51 52 48 nan nan nan nan nan
21 26 31 31 28 29 33 35 32 34 38 37 35 35 39 40 47 48 42 42 42 46 51 46 41 42 41 43 46 45 43 45 47 nan nan nan nan nan nan nan nan nan nan
40 34 32 28 36 41 42 41 40 43 45 44 50 49 36 40 44 46 47 49 50 49 51 43 39 40 41 45 46 48 49 47 nan nan nan nan nan nan nan nan nan nan nan
58 53 47 44 49 46 48 50 51 50 53 51 56 48 36 39 45 54 48 48 51 50 46 46 47 49 50 48 48 48 nan nan nan nan nan nan nan nan nan nan nan nan nan
58 61 61 64 68 66 55 59 59 59 57 59 42 36 39 43 47 49 51 53 51 49 53 48 49 49 nan nan nan nan nan nan nan nan nan nan nan nan nan nan nan nan nan
71 75 76 67 64 67 63 64 62 72 54 60 47 40 51 52 49 51 56 57 52 53 57 50 48 46 nan nan nan nan nan nan nan nan nan nan nan nan nan nan nan nan nan
64 65 65 75 67 62 70 73 82 83 35 30 44 47 49 59 70 59 63 64 54 62 53 47 46 nan nan nan nan nan nan nan nan nan nan nan nan nan nan nan nan nan nan
57 62 68 71 65 59 61 75 80 57 37 51 54 55 51 58 68 69 65 nan nan nan nan nan nan nan nan nan nan nan nan nan nan nan nan nan nan nan nan nan nan nan nan
65 57 58 57 65 42 62 77 69 27 32 44 58 52 61 70 68 nan nan nan nan nan nan nan nan nan nan nan nan nan nan nan nan nan nan nan nan nan nan nan nan nan nan
62 29 31 35 43 53 64 65 54 49 45 53 50 nan 64 66 nan nan nan nan nan nan nan nan nan nan nan nan nan nan nan nan nan nan nan nan nan nan nan nan nan nan nan
42 49 44 40 45 55 58 59 53 49 51 nan nan nan nan nan nan nan nan nan nan nan nan nan nan nan nan nan nan nan nan nan nan nan nan nan nan nan nan nan nan nan nan
38 41 45 46 47 49 50 57 nan nan nan nan nan nan nan nan nan nan nan nan nan nan nan nan nan nan nan nan nan nan nan nan nan nan nan nan nan nan nan nan nan nan nan
35 39 41 44 46 48 44 42 nan nan nan nan nan nan nan nan nan nan nan nan nan nan nan nan nan nan nan nan nan nan nan nan nan nan nan nan nan nan nan nan nan nan nan
39 43 44 45 47 48 nan nan 49 48 nan nan nan nan nan nan nan nan nan nan nan nan nan nan nan nan nan nan nan nan nan nan nan nan nan nan nan nan nan nan nan nan nan
nan nan nan nan nan nan nan nan nan nan nan nan nan nan nan nan nan nan nan nan nan nan nan nan nan nan nan nan nan nan nan nan nan nan nan nan nan nan nan nan nan nan nan
nan nan nan nan nan nan nan nan nan nan nan nan nan nan nan nan nan nan nan nan nan nan nan nan nan nan nan nan nan nan nan nan nan nan nan nan nan nan nan nan nan nan nan
nan nan nan nan nan nan nan nan nan nan nan 37 39 nan nan nan nan nan nan nan nan nan nan nan nan nan nan nan nan nan nan nan nan nan nan nan nan nan nan nan nan nan nan
Wind_Direction
338 338 344 325 319 289 248 229 258 3 6 347 351 354 0 4 356 358 1 357 nan nan nan nan nan nan nan nan nan nan nan nan nan nan nan nan nan nan nan nan nan nan nan
333 340 349 342 332 227 166 174 260 350 349 350 349 354 358 359 357 359 2 3 357 nan 350 nan nan nan nan nan nan nan nan nan nan nan nan nan nan nan nan nan nan nan nan
325 336 341 353 345 75 142 104 215 321 296 317 338 353 352 351 349 352 350 350 352 nan 349 nan nan nan nan nan nan nan nan nan nan nan nan nan nan nan nan nan nan nan nan
329 340 346 348 5 33 333 300 287 289 265 304 319 340 353 352 354 350 344 343 342 342 342 343 338 nan nan nan 320 316 318 316 nan nan nan nan nan nan nan nan nan nan nan
325 329 343 331 325 300 308 300 286 285 268 274 299 318 332 345 347 345 341 341 340 340 339 339 338 338 336 328 310 310 312 311 308 307 nan nan nan nan nan nan nan nan nan
318 329 317 317 302 302 307 294 295 278 284 278 300 312 322 336 340 338 334 333 337 338 334 335 335 336 337 334 324 315 316 309 nan nan nan nan nan nan nan nan nan nan nan
316 314 317 301 309 312 286 287 292 292 270 278 286 303 319 329 330 331 331 329 330 332 332 330 333 336 334 321 315 313 317 313 309 301 nan nan nan nan nan nan nan nan nan
304 304 309 294 301 303 295 287 285 282 286 272 292 308 314 322 319 322 320 321 323 328 326 328 328 326 319 312 316 321 318 313 311 302 nan nan nan nan 298 nan nan nan nan
299 299 302 288 288 295 307 297 284 280 275 279 291 304 307 307 321 322 316 311 317 320 324 324 325 318 316 323 319 318 315 308 302 308 303 294 296 298 nan 294 298 290 nan
289 302 299 282 276 287 293 293 283 277 273 276 283 296 298 299 315 318 315 306 312 312 317 322 326 321 323 321 317 314 309 nan 296 295 291 295 296 298 nan nan nan nan nan
282 289 286 283 272 274 275 273 281 278 275 277 275 274 278 297 299 314 317 306 312 317 320 322 319 322 321 324 320 310 305 299 297 nan nan nan nan nan nan nan nan nan nan
277 260 266 264 261 260 271 271 269 274 268 271 266 251 273 287 291 304 316 316 308 314 318 315 315 316 321 317 309 307 308 303 nan nan nan nan nan nan nan nan nan nan nan
275 276 263 263 273 272 267 266 265 265 263 263 262 270 265 281 290 303 307 311 306 310 317 312 305 310 310 306 312 312 nan nan nan nan nan nan nan nan nan nan nan nan nan
276 273 269 269 266 275 276 265 261 261 256 259 256 266 267 289 281 285 298 296 301 309 313 309 306 308 nan nan nan nan nan nan nan nan nan nan nan nan nan nan nan nan nan
265 269 266 264 263 262 261 260 256 249 249 250 272 282 291 286 281 292 296 298 299 311 313 308 309 308 nan nan nan nan nan nan nan nan nan nan nan nan nan nan nan nan nan
264 258 259 257 255 250 257 252 240 242 217 263 271 274 274 292 288 297 295 299 300 304 304 306 309 nan nan nan nan nan nan nan nan nan nan nan nan nan nan nan nan nan nan
251 247 249 256 243 245 247 243 241 245 244 244 256 274 278 291 291 294 298 nan nan nan nan nan nan nan nan nan nan nan nan nan nan nan nan nan nan nan nan nan nan nan nan
245 239 244 263 267 257 255 256 274 247 242 258 253 263 282 288 284 nan nan nan nan nan nan nan nan nan nan nan nan nan nan nan nan nan nan nan nan nan nan nan nan nan nan
262 256 235 256 259 256 259 264 275 265 263 267 271 nan 273 275 nan nan nan nan nan nan nan nan nan nan nan nan nan nan nan nan nan nan nan nan nan nan nan nan nan nan nan
265 276 273 265 259 253 258 267 276 273 275 nan nan nan nan nan nan nan nan nan nan nan nan nan nan nan nan nan nan nan nan nan nan nan nan nan nan nan nan nan nan nan nan
254 254 260 259 261 265 268 273 nan nan nan nan nan nan nan nan nan nan nan nan nan nan nan nan nan nan nan nan nan nan nan nan nan nan nan nan nan nan nan nan nan nan nan
257 260 257 256 253 260 271 285 nan nan nan nan nan nan nan nan nan nan nan nan nan nan nan nan nan nan nan nan nan nan nan nan nan nan nan nan nan nan nan nan nan nan nan
257 258 258 257 259 261 nan nan 269 290 nan nan nan nan nan nan nan nan nan nan nan nan nan nan nan nan nan nan nan nan nan nan nan nan nan nan nan nan nan nan nan nan nan
nan nan nan nan nan nan nan nan nan nan nan nan nan nan nan nan nan nan nan nan nan nan nan nan nan nan nan nan nan nan nan nan nan nan nan nan nan nan nan nan nan nan nan
nan nan nan nan nan nan nan nan nan nan nan nan nan nan nan nan nan nan nan nan nan nan nan nan nan nan nan nan nan nan nan nan nan nan nan nan nan nan nan nan nan nan nan
nan nan nan nan nan nan nan nan nan nan nan 269 260 nan nan nan nan nan nan nan nan nan nan nan nan nan nan nan nan nan nan nan nan nan nan nan nan nan nan nan nan nan nan